Fitchburg, MA

3:36 AM EDT on May 25, 2018 (GMT -0400)
Fitchburg Municipal

Weather History for KFIT - February, 2013

Change the Weather History Date:

Sunday, February 10, 2013

  Actual Average (KORH) Record (KORH)
Temperature  
Mean Temperature 24 °F -  
Max Temperature 39 °F 32 °F 55 °F (1909)
Min Temperature 9 °F 13 °F -14 °F (1948)
Degree Days  
Heating Degree Days 41    
Moisture  
Dew Point 2 °F    
Average Humidity 46    
Maximum Humidity 84    
Minimum Humidity 23    
Precipitation  
Precipitation 0.00 in - - ()
Sea Level Pressure  
Sea Level Pressure 30.35 in    
Wind  
Wind Speed 6 mph (WNW)    
Max Wind Speed 13 mph    
Max Gust Speed -    
Visibility 9 miles    
Events      
Averages and records for this station are not official NWS values.
T = Trace of Precipitation, MM = Missing Value Source: NWS Daily Summary

Daily Weather History Graph

Daily Weather History Graph

Search for Another Location

Airport or City:

Astronomy

Feb. 10, 2013 Rise Set
Actual Time 6:50 AM EST 5:12 PM EST
Civil Twilight 6:21 AM EST 5:42 PM EST
Nautical Twilight 5:47 AM EST 6:15 PM EST
Astronomical Twilight 5:15 AM EST 6:48 PM EST
Moon 6:36 AM EST (2/10) 6:02 PM EST (2/10)
Length of Visible Light 11h 21m
Length of Day
10h 22m
New Moon, 0% of the Moon is Illuminated
Feb 10
New Moon
Feb 17
First Quarter
Feb 25
Full
Mar 4
Last Quarter
Mar 11
New

Hourly Weather History & Observations

Time (EST) Temp. Windchill Dew Point Humidity Pressure Visibility Wind Dir Wind Speed Gust Speed Precip Events Conditions
12:52 AM 14.0 °F 3.9 °F -2.9 °F 47% 30.25 in 10.0 mi NW 6.9 mph - N/A   Clear
1:52 AM 12.0 °F 5.9 °F -2.9 °F 51% 30.26 in 10.0 mi NW 3.5 mph - N/A   Clear
2:52 AM 9.0 °F -0.9 °F -4.0 °F 56% 30.26 in 10.0 mi NW 5.8 mph - N/A   Clear
3:52 AM 12.0 °F -0.4 °F -5.1 °F 46% 30.27 in 10.0 mi NW 9.2 mph - N/A   Clear
4:52 AM 10.9 °F -2.6 °F -6.0 °F 47% 30.30 in 10.0 mi NW 10.4 mph - N/A   Clear
5:52 AM 10.0 °F -0.9 °F -6.0 °F 48% 30.32 in 10.0 mi NW 6.9 mph - N/A   Clear
6:52 AM 10.9 °F 2.9 °F -5.1 °F 49% 30.34 in 10.0 mi NW 4.6 mph - N/A   Clear
7:52 AM 18.0 °F 4.8 °F -4.0 °F 38% 30.37 in 10.0 mi WNW 12.7 mph - N/A   Clear
8:52 AM 21.9 °F 17.2 °F -2.0 °F 35% 30.39 in 10.0 mi NW 3.5 mph - N/A   Clear
9:52 AM 26.1 °F 16.2 °F -0.0 °F 32% 30.40 in 10.0 mi West 10.4 mph - N/A   Clear
10:52 AM 30.0 °F 20.5 °F 1.0 °F 29% 30.40 in 10.0 mi WNW 11.5 mph - N/A   Clear
11:52 AM 32.0 °F 24.2 °F 7.0 °F 35% 30.40 in 1.0 mi WNW 9.2 mph - N/A   Haze
12:00 PM 32.0 °F 22.5 °F 3.2 °F 30% 30.38 in 0.8 mi West 12.7 mph - N/A   Haze
12:02 PM 32.0 °F 22.5 °F 3.2 °F 30% 30.38 in 5.0 mi WNW 12.7 mph - N/A   Haze
12:52 PM 34.0 °F 28.0 °F 5.0 °F 30% 30.36 in 10.0 mi WNW 6.9 mph - N/A   Clear
1:52 PM 37.0 °F - 3.0 °F 24% 30.34 in 10.0 mi Calm Calm - N/A   Clear
2:52 PM 39.0 °F 33.4 °F 3.9 °F 23% 30.35 in 10.0 mi West 8.1 mph - N/A   Clear
3:52 PM 37.9 °F 32.7 °F 3.9 °F 24% 30.38 in 10.0 mi West 6.9 mph - N/A   Clear
4:52 PM 34.0 °F 28.8 °F 1.0 °F 25% 30.36 in 10.0 mi West 5.8 mph - N/A   Clear
5:52 PM 25.0 °F - 10.0 °F 53% 30.37 in 10.0 mi Calm Calm - N/A   Clear
6:52 PM 21.0 °F 16.2 °F 10.0 °F 63% 30.38 in 10.0 mi NNW 3.5 mph - N/A   Clear
7:52 PM 15.1 °F - 8.1 °F 74% 30.38 in 10.0 mi Calm Calm - N/A   Clear
8:52 PM 10.9 °F - 5.0 °F 77% 30.38 in 10.0 mi Calm Calm - N/A   Clear
9:52 PM 12.9 °F - 7.0 °F 77% 30.37 in 10.0 mi Calm Calm - N/A   Clear
10:52 PM 9.0 °F - 5.0 °F 84% 30.36 in 10.0 mi Calm Calm - N/A   Clear
11:52 PM 10.9 °F - 6.1 °F 81% 30.36 in 10.0 mi Calm Calm - N/A   Mostly Cloudy